Overview Statistics Trail Chart Weather Telemetry Raw packets
 

This is the latest recevied weather packets stored in our database for station/object K5BOU. If no packets are shown the sender has not sent any weather packets the latest 10 day(s).

<< 32 33 34 35 36 37 38 >>
Time Temp. Humidity Pressure Rain* Wind** Luminosity Snow
1788443508 27.22° C 99% 1012.8 hPa 0 mm - 120 W/m² -
1788443207 27.22° C 99% 1012.9 hPa 0 mm - 111 W/m² -
1788442903 27.22° C 99% 1013 hPa 0 mm - 98 W/m² -
1788442601 27.22° C 99% 1012.9 hPa 0 mm - 78 W/m² -
1788442297 26.67° C 99% 1013 hPa 0 mm - 61 W/m² -
1788441996 26.67° C 99% 1012.7 hPa 0 mm - 55 W/m² -
1788441691 26.67° C 99% 1012.9 hPa 0 mm - 50 W/m² -
1788441386 26.67° C 99% 1012.9 hPa 0 mm - 45 W/m² -
1788441085 26.67° C 99% 1012.9 hPa 0 mm - 39 W/m² -
1788440780 26.67° C 99% 1012.7 hPa 0 mm - 34 W/m² -
1788440475 26.67° C 99% 1012.5 hPa 0 mm - 29 W/m² -
1788440173 26.67° C 99% 1012.6 hPa 0 mm - 20 W/m² -
1788439868 26.67° C 99% 1012.5 hPa 0 mm - 11 W/m² -
1788439568 26.67° C 99% 1012.3 hPa 0 mm - 8 W/m² -
1788439268 26.67° C 99% 1012.4 hPa 0 mm - 5 W/m² -
1788438962 26.67° C 99% 1012.3 hPa 0 mm - 5 W/m² -
1788438661 26.67° C 99% 1012.2 hPa 0 mm - 3 W/m² -
1788438361 26.67° C 99% 1012.3 hPa 0 mm - 3 W/m² -
1788438055 26.67° C 99% 1012 hPa 0 mm - 2 W/m² -
1788437749 26.67° C 99% 1012.1 hPa 0 mm - 2 W/m² -
1788437445 26.67° C 99% 1012.2 hPa 0 mm - 1 W/m² -
1788437144 26.67° C 99% 1012.1 hPa 0 mm - 0 W/m² -
1788436839 26.67° C 99% 1012.2 hPa 1.78 mm - 0 W/m² -
1788436537 26.67° C 99% 1012.2 hPa 1.78 mm - 0 W/m² -
1788436232 26.67° C 99% 1012.2 hPa 0 mm - 0 W/m² -

* Rain latest hour (hover to see other rain measurements)
** Current wind speed in m/s (hover to see current wind gust speed)